Location: Fort Worth, Tx
(32.7431°N, 97.3695°W)
Time: 23:41:27
(UTC-04:00)

Vanguard 2 - Pass Details

Date: 26 February 2024
Orbit: 552 x 2916 km, 32.9° (Epoch: 24 April)

Event Time Altitude Azimuth Distance (km) Brightness Sun altitude
Rises 00:54:19 0° 282° (WNW) 5,721 12.2 -63.7°
Reaches altitude 10° 00:57:40 10° 281° (W) 4,963 11.8 -64.0°
Enters shadow 01:00:48 21° 279° (W) 4,303 11.3 -64.3°
